SCP
0 0 0 0 0 0 0 -0 -0 -0 -0 -0 0 0 0 -0 0 0 0 0 0 0 0 0 0 0 0 -0 -0 0 0 0 0 -0 -0 -0 -0 -0 -0 -0 -0 -0 -0 -0 -0 -0 -0 -0 -0
0 0 0 0 0 0 0 -0 -0 -0 0 0 0 0 0 0 0 0 0 0 0 0 0 0 0 0 0 0 0 0 0 -0 0 0 -0 -0 0 -0 -0 -0 -0 -0 -0 -0 -0 -0 -0 -0 -0
0 0 0 0 0 0 0 0 0 0 0 0 0 0 0 0 0 0 0 0 0 0 0 0 0 0 0 0 0 0 0 0 0 -0 -0 -0 -0 0 -0 -0 -0 -0 -0 -0 -0 -0 -0 -0 -0
0 0 0 0 0 0 0 0 0 0 0 0 0 0 0 0 0 0 0 0 0 0 0 0 0 0 0 0 0 0 0 0 0 0 -0 -0 -0 -0 -0 -0 -0 -0 -0 -0 -0 -0 -0 -0 -0
0 0 0 0 0 0 0 0 0 0 0 0 0 -0 0 0 0 -0 -0 0 0 0 0 0 0 0 0 -0 -0 -0 0 0 0 -0 0 -0 -0 -0 -0 -0 -0 -0 -0 -0 -0 -0 -0 -0 -0
0 0 0 0 0 0 0 0 0 0 0 0 0 0 0 0 0 0 0 0 0 0 0 0 0 0 0 0 -0 -0 -0 -0 -0 -0 -0 -0 -0 -0 -0 -0 -0 -0 -0 -0 -0 -0 -0 -0 -0
0 0 0 0 0 0 0 0 0 0 0 0 0 0 0 0 0 -0 -0 -0 0 0 0 0 0 0 0 0 0 -0 -0 -0 -0 -0 -0 -0 -0 -0 -0 -0 -0 -0 -0 -0 -0 -0 -0 -0 -0
0 0 0 0 0 0 0 0 0 0 0 0 0 0 0 -0 0 -0 -0 -0 -0 -0 0 0 0 0 0 0 0 0 -0 -0 -0 -0 -0 -0 -0 -0 -0 -0 -0 -0 -0 -0 -0 -0 -0 0 0
0 0 0 0 0 0 0 0 0 0 0 0 0 0 0 -0 -0 -0 -0 -0 -0 -0 -0 0 0 0 0 0 0 0 0 -0 -0 -0 -0 -0 0 -0 -0 -0 -0 -0 -0 -0 0 0 0 0 0
0 0 0 0 0 0 0 0 0 0 0 0 0 0 0 -0 -0 -0 -0 -0 -0 -0 -0 -0 -0 -0 0 0 -0 0 0 0 0 0 -0 0 0 0 0 0 -0 -0 0 0 0 0 0 0 0
0 0 0 0 0 0 0 0 0 0 0 0 0 0 0 0 0 0 -0 -0 -0 -0 -0 -0 -0 -0 -0 0 -0 0 0 0 0 0 0 0 0 0 0 0 0 0 0 0 0 0 0 0 0
0 0 0 0 0 0 0 0 0 0 0 0 0 0 0 0 0 -0 0 -0 -0 -0 -0 -0 -0 -0 -0 -0 -0 -0 0 0 0 0 0 0 0 0 0 0 0 0 0 0 0 0 0 0 0
0 0 0 0 0 0 0 0 0 0 0 0 0 0 0 0 0 0 0 0 0 0 0 -0 -0 -0 -0 -0 -0 -0 -0 0 0 0 0 0 0 0 0 0 0 0 0 0 0 0 0 0 0
0 0 0 0 0 0 0 0 0 0 0 0 0 0 0 0 0 0 0 0 0 0 0 0 -0 -0 -0 0 -0 -0 -0 0 0 0 0 0 0 0 0 0 0 0 0 0 0 0 0 0 0
0 0 0 0 0 0 0 0 0 0 0 0 0 0 0 0 0 0 0 0 0 0 0 0 0 0 0 0 0 0 0 0 0 0 0 0 0 0 0 0 0 0 0 0 0 0 0 0 0
0 0 0 0 0 0 0 0 0 0 0 0 0 0 0 0 0 0 0 0 0 0 0 0 0 0 0 0 0 0 0 0 0 0 0 0 0 0 0 0 0 0 0 0 0 0 0 0 0
0 0 0 0 0 0 0 0 0 0 0 0 0 0 0 0 0 0 0 0 0 0 0 0 0 0 0 0 0 0 0 0 0 0 0 0 0 0 0 0 0 0 0 0 0 0 0 0 0
0 0 0 0 0 0 0 0 0 0 0 0 0 0 0 0 -0 0 0 0 0 0 0 0 0 0 0 0 0 0 0 0 0 0 0 0 0 0 0 0 0 0 0 0 0 0 0 0 0
0 0 0 0 0 0 0 0 0 0 0 0 0 0 0 0 -0 0 0 0 0 0 0 0 0 0 0 0 0 0 0 0 0 0 0 0 0 0 0 0 0 0 0 0 0 0 0 0 0
0 0 0 0 0 0 0 0 0 0 0 0 0 0 0 0 0 0 0 0 0 0 0 0 0 0 0 0 0 0 0 0 0 0 0 0 0 0 0 0 0 0 0 0 0 0 0 0 0
0 0 0 0 0 0 0 0 0 0 0 0 0 0 0 0 0 0 0 0 0 0 0 0 0 0 0 0 0 0 0 0 0 0 0 0 0 0 0 0 0 0 0 0 0 0 0 0 0
0 0 0 0 0 0 0 0 0 0 0 0 0 0 0 0 0 0 0 0 0 0 0 0 0 0 0 0 0 0 0 0 0 0 0 0 0 0 0 0 0 0 0 0 0 0 0 0 0
0 0 0 0 0 0 0 0 -0 0 0 0 0 0 0 0 0 0 0 0 0 0 0 0 0 0 0 0 0 0 0 0 0 0 0 0 0 0 0 0 0 0 0 0 0 0 0 0 0
0 0 0 0 0 0 0 0 0 0 0 0 0 0 0 0 0 0 0 0 0 0 0 0 0 0 0 0 0 0 0 0 0 0 0 0 0 0 0 0 0 0 0 0 0 0 0 0 0
0 0 0 0 0 0 0 0 0 0 -0 0 0 0 0 0 0 0 0 0 0 0 0 0 0 0 0 0 0 0 0 0 0 0 0 0 0 0 0 0 0 0 0 0 0 0 0 0 0
0 0 0 0 0 0 0 0 0 0 0 -0 0 0 0 0 0 0 0 0 0 0 0 0 0 0 0 0 0 0 0 0 0 0 0 0 0 0 0 0 0 0 0 0 0 0 0 0 0
0 0 0 0 0 0 0 0 0 0 0 0 0 0 0 0 0 0 0 0 0 0 0 0 0 0 0 0 0 0 0 0 0 0 0 0 0 0 0 0 0 0 0 0 0 0 0 0 0
0 0 0 0 0 0 0 0 0 0 0 0 0 0 0 0 0 0 0 0 0 0 0 0 0 0 0 0 0 0 0 0 0 0 0 0 0 0 0 0 0 0 0 0 0 0 0 0 0
0 0 0 0 0 0 0 0 0 0 0 0 0 0 0 0 0 0 0 0 0 0 0 0 0 0 0 0 0 0 0 0 0 0 0 0 0 0 0 0 0 0 0 0 0 0 0 0 0
0 0 0 0 0 0 0 0 0 0 0 0 0 0 0 0 0 0 0 0 0 0 0 0 0 0 0 0 0 0 0 0 0 0 0 0 0 0 0 0 0 0 0 0 0 0 0 0 0
Wind_Speed_500mb
8 7 10 5 8 9 0 3 1 8 5 7 23 10 12 12 7 5 32 29 28 22 21 20 19 18 19 22 30 24 15 19 21 23 22 23 29 28 28 23 21 22 28 30 25 24 24 22 20
9 7 4 6 9 6 7 5 10 7 14 38 27 20 5 4 10 23 38 30 29 21 21 22 21 19 19 25 32 22 17 22 27 30 30 31 34 34 30 26 20 21 23 27 21 21 22 23 24
9 5 2 9 6 7 7 7 10 15 30 7 11 10 7 14 15 45 34 37 35 25 23 22 21 19 20 23 25 22 18 22 25 27 27 27 27 27 28 33 25 22 18 22 22 19 23 25 29
7 2 9 8 5 7 7 6 12 21 6 7 19 14 9 8 34 30 39 37 35 29 26 22 22 18 20 21 21 19 18 18 21 22 27 26 28 29 27 26 30 25 19 18 20 22 23 27 29
9 2 7 5 4 5 6 8 34 11 12 14 7 8 8 28 33 32 37 38 34 31 29 25 23 19 18 20 20 18 18 19 22 24 27 24 24 25 27 24 21 25 22 20 22 20 21 23 26
5 4 7 5 6 5 6 19 13 9 15 18 14 18 14 30 24 35 34 36 32 27 28 27 25 21 18 18 17 17 18 17 19 21 19 18 19 17 17 18 18 23 19 17 18 17 18 21 24
9 7 8 8 6 6 6 24 10 12 12 10 26 12 13 32 27 35 32 35 33 30 29 27 24 23 18 16 15 16 16 16 16 17 15 13 14 16 16 13 13 11 13 13 13 14 17 19 22
8 9 8 6 8 8 12 20 10 17 8 18 22 10 11 43 38 39 35 36 34 33 32 28 25 24 20 17 15 13 14 15 14 12 11 11 10 11 13 13 13 12 11 9 9 12 15 16 18
12 8 5 11 12 9 19 11 13 16 19 17 16 7 7 47 44 46 45 43 41 38 35 32 28 26 22 18 16 14 12 13 11 10 8 7 7 8 9 11 11 11 8 6 4 7 10 11 13
7 9 15 11 8 9 25 21 31 15 19 16 20 17 13 49 52 54 55 53 47 45 41 36 32 28 26 23 20 16 13 11 9 7 5 4 3 5 7 8 8 7 6 4 0 5 7 8 9
11 11 10 7 14 14 17 13 23 19 4 25 36 31 28 51 56 57 56 53 49 44 43 39 36 33 30 27 23 21 17 15 11 8 5 3 3 3 2 4 5 5 4 5 4 3 4 5 6
6 14 17 5 4 8 16 20 15 29 12 29 26 33 40 50 57 61 60 55 50 47 40 40 40 38 35 32 27 25 22 20 16 13 10 7 5 6 4 2 2 4 4 6 7 6 5 6 7
6 7 17 9 9 16 20 27 14 33 17 12 24 35 42 47 49 55 53 52 48 47 44 40 42 42 39 38 34 32 28 25 23 20 18 15 12 11 9 7 5 6 6 7 8 9 9 9 8
21 9 5 2 2 5 7 6 12 23 29 15 26 38 44 45 43 50 53 50 48 45 46 43 41 44 44 42 40 36 34 31 30 29 25 23 20 19 16 12 10 9 11 11 12 13 14 13 13
13 10 6 6 3 5 11 3 13 11 32 25 35 40 46 46 44 45 43 49 47 45 41 40 39 43 46 46 44 43 39 38 37 35 33 31 29 26 25 20 16 14 15 16 16 16 17 17 17
10 10 7 5 9 1 9 15 5 14 29 31 38 44 47 48 48 43 45 47 46 46 45 42 40 40 41 50 49 48 43 42 41 39 38 37 38 35 28 25 23 21 22 21 21 20 20 21 21
13 8 6 4 1 3 5 13 9 22 27 28 37 44 49 50 51 48 47 50 47 47 47 47 46 45 42 41 45 50 45 46 43 39 39 36 40 38 37 36 29 30 31 29 28 27 26 25 26
11 9 7 12 11 6 5 13 5 8 26 35 35 44 50 51 55 48 48 50 49 52 53 52 52 51 47 46 43 45 49 49 47 44 44 40 42 40 42 39 38 38 38 38 34 32 32 32 31
11 11 9 2 6 2 12 14 16 8 15 31 42 47 52 60 52 53 52 52 51 54 57 59 58 58 56 55 54 53 57 54 53 52 50 48 47 47 46 43 42 41 41 40 40 39 38 37 38
6 9 8 1 1 6 3 19 20 14 20 37 48 53 59 60 60 58 56 56 56 55 57 58 61 59 59 61 58 55 55 54 57 58 58 56 54 52 52 50 48 47 47 43 42 43 43 41 40
6 11 9 6 3 5 4 14 13 13 33 46 47 48 56 65 67 65 59 59 55 59 59 64 61 56 56 57 57 58 58 62 57 59 60 62 60 59 56 56 55 53 52 51 45 38 38 43 46
9 11 9 9 9 10 3 11 12 12 16 12 55 66 70 71 70 66 67 60 53 48 50 57 60 60 58 58 65 65 58 62 55 55 50 48 51 57 60 61 62 62 59 57 50 47 44 48 51
12 11 14 7 7 2 2 5 12 1 12 16 47 71 76 81 79 73 69 60 55 47 43 44 50 52 55 59 64 67 65 65 63 59 56 51 44 44 53 56 56 60 63 63 61 60 54 55 55
20 14 14 10 6 7 6 7 10 10 16 15 28 27 34 47 62 55 58 60 55 50 47 46 53 53 51 55 59 65 66 68 70 69 68 61 55 48 45 48 52 55 56 61 62 62 62 61 65
10 14 4 2 3 10 2 6 14 15 21 8 7 9 8 17 29 32 31 36 38 38 41 42 46 47 47 48 50 55 59 64 70 72 72 68 62 57 51 51 52 51 50 48 56 59 61 65 68
14 20 12 13 7 6 6 13 12 15 22 24 30 27 12 13 21 21 22 25 26 26 25 27 32 36 37 40 43 49 53 59 65 68 67 65 61 58 49 48 46 50 50 46 52 52 53 56 53
11 12 14 14 5 7 9 13 20 10 15 19 20 18 16 15 20 23 22 19 16 16 15 17 21 28 34 39 45 50 54 60 66 69 64 51 50 48 41 47 45 48 47 48 52 50 45 42 46
19 20 8 3 9 8 7 9 12 7 5 7 9 23 21 17 16 17 15 11 9 9 11 12 16 19 22 26 27 28 28 33 38 46 50 51 43 37 41 48 46 43 45 49 51 50 48 49 47
8 11 5 10 10 10 3 11 12 9 9 10 18 24 21 21 19 15 11 9 8 8 8 9 10 12 15 17 18 20 21 23 26 28 30 30 30 32 37 45 41 39 45 47 39 35 45 42 38
5 17 12 12 10 2 5 10 1 11 11 10 21 21 19 20 18 15 12 7 5 2 3 5 9 12 15 16 18 18 18 19 16 18 20 22 26 33 37 38 37 43 44 38 27 27 33 40 46
Wind_Direction_500mb
276 321 331 337 50 65 100 164 166 130 159 148 139 147 169 94 149 199 143 150 155 156 143 131 121 106 102 99 98 96 94 93 105 111 120 127 112 97 96 95 97 95 96 97 96 89 80 73 67
268 306 340 72 83 69 272 267 158 193 135 118 106 105 78 99 125 143 147 157 151 156 141 138 130 110 104 108 111 113 92 87 96 98 104 108 114 110 102 90 97 101 97 91 90 84 74 67 62
253 304 33 88 109 163 207 213 157 134 138 113 116 99 103 129 142 150 152 157 151 158 148 149 138 117 106 109 124 120 101 82 91 93 94 101 100 104 114 120 101 88 96 91 88 76 73 63 58
246 206 65 88 185 236 203 203 150 142 196 188 136 80 101 151 154 154 155 157 154 160 152 159 143 129 115 112 118 114 104 91 88 92 93 97 94 91 93 110 115 113 100 94 93 81 68 58 58
217 102 66 85 226 268 251 199 158 159 149 148 150 153 105 139 153 157 160 159 161 165 158 164 150 143 128 121 118 112 107 105 97 104 101 101 93 94 96 101 117 108 104 90 88 76 65 60 58
153 99 77 201 250 260 261 171 165 159 154 146 119 127 137 154 163 160 164 162 167 174 165 171 160 153 143 134 126 116 111 108 95 102 104 94 88 87 96 97 112 112 108 95 87 76 66 61 54
139 99 189 147 251 328 208 164 178 164 158 182 149 124 158 167 161 168 170 171 175 183 176 177 174 162 158 150 138 126 116 112 105 105 102 92 92 87 80 92 105 116 108 100 88 71 62 55 52
125 86 115 206 183 248 174 169 188 168 182 154 168 181 188 176 168 174 176 180 182 188 186 185 186 175 173 168 159 148 133 127 117 109 102 97 89 87 86 94 114 123 121 105 76 57 53 53 54
135 70 195 204 155 227 164 167 167 175 153 169 200 228 206 180 172 178 181 184 187 193 195 189 197 190 186 186 182 172 161 146 135 121 110 100 92 92 89 92 124 136 140 124 69 48 44 46 50
120 129 213 210 208 214 184 185 167 163 166 205 199 213 197 180 180 184 189 190 191 193 200 194 202 202 200 200 200 196 192 181 167 147 128 121 95 95 99 101 105 149 168 179 143 14 21 31 42
173 171 178 255 237 244 201 193 174 149 214 208 204 198 184 182 187 193 197 200 198 196 203 203 203 206 212 211 212 211 210 211 210 201 192 186 194 175 121 127 131 141 181 209 240 302 342 352 10
168 216 156 238 280 198 189 169 188 186 195 224 229 215 190 190 195 198 201 204 204 204 207 212 210 211 214 217 221 225 222 226 227 231 235 232 229 227 247 257 211 206 207 224 236 257 291 310 323
201 225 189 248 315 236 184 186 192 207 195 204 214 205 201 199 203 205 208 210 212 211 211 214 219 219 220 222 221 228 230 232 235 238 242 243 243 232 234 248 262 256 248 246 244 253 271 282 281
195 194 155 159 170 186 168 153 183 216 209 223 206 207 207 209 209 209 211 215 215 219 216 218 223 224 226 228 231 232 235 237 238 240 243 246 246 240 237 240 246 262 259 257 256 258 260 270 276
155 132 342 133 199 157 141 88 223 220 202 211 199 204 206 213 215 219 219 219 219 221 220 222 225 230 231 233 234 236 238 241 242 245 247 250 251 245 240 243 247 252 260 263 266 271 270 270 272
104 63 137 303 154 116 140 248 253 207 199 204 204 205 209 214 222 226 227 230 229 228 229 230 233 236 238 237 238 237 238 242 244 246 249 251 257 259 252 250 257 263 266 268 269 271 274 274 273
12 152 161 288 128 124 143 243 248 213 209 216 211 214 217 220 226 229 230 231 233 238 237 237 239 243 244 246 244 238 243 247 248 251 252 257 251 255 263 269 272 270 266 269 273 274 275 277 278
166 136 193 188 212 134 161 260 282 223 215 220 223 225 225 230 234 234 234 236 235 236 240 243 246 249 250 256 257 247 242 244 247 250 250 251 254 257 264 267 265 268 269 269 269 274 278 282 284
161 137 165 274 8 163 210 245 251 251 259 232 230 231 233 237 240 240 239 239 240 240 239 240 242 245 247 248 252 247 242 245 248 249 252 251 253 256 262 267 268 267 270 271 272 273 274 277 282
133 142 185 106 26 154 134 262 257 195 241 242 238 232 235 242 241 240 239 240 241 244 245 243 243 242 244 248 253 254 256 253 251 255 254 255 256 257 259 261 264 268 270 272 270 268 269 274 276
146 165 179 191 96 37 350 277 239 241 227 240 245 248 248 245 246 244 242 244 246 248 248 246 245 245 245 246 249 251 252 255 253 252 253 252 256 259 260 263 264 266 266 270 274 280 277 273 274
147 193 137 129 126 221 117 275 250 237 238 215 240 242 245 246 245 246 247 248 245 249 252 245 244 245 243 241 245 247 251 257 264 267 274 272 261 257 260 265 268 269 269 270 271 271 270 273 272
196 125 142 125 126 126 226 258 256 315 254 226 233 235 240 247 248 248 249 249 248 251 247 246 246 247 247 245 247 251 253 259 264 266 269 271 272 266 262 263 265 268 272 273 270 269 267 268 271
149 85 54 60 79 278 246 187 260 183 207 250 237 241 252 259 253 251 250 246 243 240 240 241 240 238 241 243 245 250 255 258 262 266 268 270 273 274 270 269 269 270 272 272 272 273 269 268 270
101 94 21 31 327 223 301 254 256 265 253 256 170 178 253 243 229 235 242 228 226 231 236 240 240 241 243 245 246 249 253 257 262 265 267 268 269 267 269 273 270 273 279 276 276 273 273 272 272
178 161 156 180 209 234 40 239 247 231 265 279 265 270 273 211 197 188 193 203 215 225 232 236 237 243 249 254 258 259 262 265 263 263 265 267 268 267 264 261 268 273 274 269 275 276 273 272 274
188 184 148 103 31 60 221 293 296 272 268 254 240 221 213 177 155 158 169 180 199 220 235 247 250 249 250 254 256 259 262 264 267 267 263 260 260 259 258 261 260 268 278 266 266 270 269 270 274
184 149 143 350 142 230 265 273 238 315 26 196 190 202 189 175 167 157 161 176 203 237 251 252 254 256 259 260 262 266 270 269 267 261 264 267 255 250 253 260 260 269 272 268 264 265 265 266 265
127 182 83 124 157 168 182 256 220 252 260 238 215 199 189 179 170 157 159 180 196 206 220 237 250 262 268 274 274 270 267 268 270 269 268 267 257 256 258 262 256 267 270 270 264 254 270 264 272
177 173 162 179 208 127 139 275 307 270 259 222 161 159 163 158 154 147 148 162 170 204 248 268 274 274 279 287 288 289 286 280 271 266 264 257 254 256 258 259 259 267 267 263 269 260 267 272 271
Wind_Speed_850mb
8 7 10 5 8 9 0 3 1 8 5 7 23 10 12 12 7 5 32 29 28 22 21 20 19 18 19 22 30 24 15 19 21 23 22 23 29 28 28 23 21 22 28 30 25 24 24 22 20
9 7 4 6 9 6 7 5 10 7 14 38 27 20 5 4 10 23 38 30 29 21 21 22 21 19 19 25 32 22 17 22 27 30 30 31 34 34 30 26 20 21 23 27 21 21 22 23 24
9 5 2 9 6 7 7 7 10 15 30 7 11 10 7 14 15 45 34 37 35 25 23 22 21 19 20 23 25 22 18 22 25 27 27 27 27 27 28 33 25 22 18 22 22 19 23 25 29
7 2 9 8 5 7 7 6 12 21 6 7 19 14 9 8 34 30 39 37 35 29 26 22 22 18 20 21 21 19 18 18 21 22 27 26 28 29 27 26 30 25 19 18 20 22 23 27 29
9 2 7 5 4 5 6 8 34 11 12 14 7 8 8 28 33 32 37 38 34 31 29 25 23 19 18 20 20 18 18 19 22 24 27 24 24 25 27 24 21 25 22 20 22 20 21 23 26
5 4 7 5 6 5 6 19 13 9 15 18 14 18 14 30 24 35 34 36 32 27 28 27 25 21 18 18 17 17 18 17 19 21 19 18 19 17 17 18 18 23 19 17 18 17 18 21 24
9 7 8 8 6 6 6 24 10 12 12 10 26 12 13 32 27 35 32 35 33 30 29 27 24 23 18 16 15 16 16 16 16 17 15 13 14 16 16 13 13 11 13 13 13 14 17 19 22
8 9 8 6 8 8 12 20 10 17 8 18 22 10 11 43 38 39 35 36 34 33 32 28 25 24 20 17 15 13 14 15 14 12 11 11 10 11 13 13 13 12 11 9 9 12 15 16 18
12 8 5 11 12 9 19 11 13 16 19 17 16 7 7 47 44 46 45 43 41 38 35 32 28 26 22 18 16 14 12 13 11 10 8 7 7 8 9 11 11 11 8 6 4 7 10 11 13
7 9 15 11 8 9 25 21 31 15 19 16 20 17 13 49 52 54 55 53 47 45 41 36 32 28 26 23 20 16 13 11 9 7 5 4 3 5 7 8 8 7 6 4 0 5 7 8 9
11 11 10 7 14 14 17 13 23 19 4 25 36 31 28 51 56 57 56 53 49 44 43 39 36 33 30 27 23 21 17 15 11 8 5 3 3 3 2 4 5 5 4 5 4 3 4 5 6
6 14 17 5 4 8 16 20 15 29 12 29 26 33 40 50 57 61 60 55 50 47 40 40 40 38 35 32 27 25 22 20 16 13 10 7 5 6 4 2 2 4 4 6 7 6 5 6 7
6 7 17 9 9 16 20 27 14 33 17 12 24 35 42 47 49 55 53 52 48 47 44 40 42 42 39 38 34 32 28 25 23 20 18 15 12 11 9 7 5 6 6 7 8 9 9 9 8
21 9 5 2 2 5 7 6 12 23 29 15 26 38 44 45 43 50 53 50 48 45 46 43 41 44 44 42 40 36 34 31 30 29 25 23 20 19 16 12 10 9 11 11 12 13 14 13 13
13 10 6 6 3 5 11 3 13 11 32 25 35 40 46 46 44 45 43 49 47 45 41 40 39 43 46 46 44 43 39 38 37 35 33 31 29 26 25 20 16 14 15 16 16 16 17 17 17
10 10 7 5 9 1 9 15 5 14 29 31 38 44 47 48 48 43 45 47 46 46 45 42 40 40 41 50 49 48 43 42 41 39 38 37 38 35 28 25 23 21 22 21 21 20 20 21 21
13 8 6 4 1 3 5 13 9 22 27 28 37 44 49 50 51 48 47 50 47 47 47 47 46 45 42 41 45 50 45 46 43 39 39 36 40 38 37 36 29 30 31 29 28 27 26 25 26
11 9 7 12 11 6 5 13 5 8 26 35 35 44 50 51 55 48 48 50 49 52 53 52 52 51 47 46 43 45 49 49 47 44 44 40 42 40 42 39 38 38 38 38 34 32 32 32 31
11 11 9 2 6 2 12 14 16 8 15 31 42 47 52 60 52 53 52 52 51 54 57 59 58 58 56 55 54 53 57 54 53 52 50 48 47 47 46 43 42 41 41 40 40 39 38 37 38
6 9 8 1 1 6 3 19 20 14 20 37 48 53 59 60 60 58 56 56 56 55 57 58 61 59 59 61 58 55 55 54 57 58 58 56 54 52 52 50 48 47 47 43 42 43 43 41 40
6 11 9 6 3 5 4 14 13 13 33 46 47 48 56 65 67 65 59 59 55 59 59 64 61 56 56 57 57 58 58 62 57 59 60 62 60 59 56 56 55 53 52 51 45 38 38 43 46
9 11 9 9 9 10 3 11 12 12 16 12 55 66 70 71 70 66 67 60 53 48 50 57 60 60 58 58 65 65 58 62 55 55 50 48 51 57 60 61 62 62 59 57 50 47 44 48 51
12 11 14 7 7 2 2 5 12 1 12 16 47 71 76 81 79 73 69 60 55 47 43 44 50 52 55 59 64 67 65 65 63 59 56 51 44 44 53 56 56 60 63 63 61 60 54 55 55
20 14 14 10 6 7 6 7 10 10 16 15 28 27 34 47 62 55 58 60 55 50 47 46 53 53 51 55 59 65 66 68 70 69 68 61 55 48 45 48 52 55 56 61 62 62 62 61 65
10 14 4 2 3 10 2 6 14 15 21 8 7 9 8 17 29 32 31 36 38 38 41 42 46 47 47 48 50 55 59 64 70 72 72 68 62 57 51 51 52 51 50 48 56 59 61 65 68
14 20 12 13 7 6 6 13 12 15 22 24 30 27 12 13 21 21 22 25 26 26 25 27 32 36 37 40 43 49 53 59 65 68 67 65 61 58 49 48 46 50 50 46 52 52 53 56 53
11 12 14 14 5 7 9 13 20 10 15 19 20 18 16 15 20 23 22 19 16 16 15 17 21 28 34 39 45 50 54 60 66 69 64 51 50 48 41 47 45 48 47 48 52 50 45 42 46
19 20 8 3 9 8 7 9 12 7 5 7 9 23 21 17 16 17 15 11 9 9 11 12 16 19 22 26 27 28 28 33 38 46 50 51 43 37 41 48 46 43 45 49 51 50 48 49 47
8 11 5 10 10 10 3 11 12 9 9 10 18 24 21 21 19 15 11 9 8 8 8 9 10 12 15 17 18 20 21 23 26 28 30 30 30 32 37 45 41 39 45 47 39 35 45 42 38
5 17 12 12 10 2 5 10 1 11 11 10 21 21 19 20 18 15 12 7 5 2 3 5 9 12 15 16 18 18 18 19 16 18 20 22 26 33 37 38 37 43 44 38 27 27 33 40 46
Wind_Direction_850mb
276 321 331 337 50 65 100 164 166 130 159 148 139 147 169 94 149 199 143 150 155 156 143 131 121 106 102 99 98 96 94 93 105 111 120 127 112 97 96 95 97 95 96 97 96 89 80 73 67
268 306 340 72 83 69 272 267 158 193 135 118 106 105 78 99 125 143 147 157 151 156 141 138 130 110 104 108 111 113 92 87 96 98 104 108 114 110 102 90 97 101 97 91 90 84 74 67 62
253 304 33 88 109 163 207 213 157 134 138 113 116 99 103 129 142 150 152 157 151 158 148 149 138 117 106 109 124 120 101 82 91 93 94 101 100 104 114 120 101 88 96 91 88 76 73 63 58
246 206 65 88 185 236 203 203 150 142 196 188 136 80 101 151 154 154 155 157 154 160 152 159 143 129 115 112 118 114 104 91 88 92 93 97 94 91 93 110 115 113 100 94 93 81 68 58 58
217 102 66 85 226 268 251 199 158 159 149 148 150 153 105 139 153 157 160 159 161 165 158 164 150 143 128 121 118 112 107 105 97 104 101 101 93 94 96 101 117 108 104 90 88 76 65 60 58
153 99 77 201 250 260 261 171 165 159 154 146 119 127 137 154 163 160 164 162 167 174 165 171 160 153 143 134 126 116 111 108 95 102 104 94 88 87 96 97 112 112 108 95 87 76 66 61 54
139 99 189 147 251 328 208 164 178 164 158 182 149 124 158 167 161 168 170 171 175 183 176 177 174 162 158 150 138 126 116 112 105 105 102 92 92 87 80 92 105 116 108 100 88 71 62 55 52
125 86 115 206 183 248 174 169 188 168 182 154 168 181 188 176 168 174 176 180 182 188 186 185 186 175 173 168 159 148 133 127 117 109 102 97 89 87 86 94 114 123 121 105 76 57 53 53 54
135 70 195 204 155 227 164 167 167 175 153 169 200 228 206 180 172 178 181 184 187 193 195 189 197 190 186 186 182 172 161 146 135 121 110 100 92 92 89 92 124 136 140 124 69 48 44 46 50
120 129 213 210 208 214 184 185 167 163 166 205 199 213 197 180 180 184 189 190 191 193 200 194 202 202 200 200 200 196 192 181 167 147 128 121 95 95 99 101 105 149 168 179 143 14 21 31 42
173 171 178 255 237 244 201 193 174 149 214 208 204 198 184 182 187 193 197 200 198 196 203 203 203 206 212 211 212 211 210 211 210 201 192 186 194 175 121 127 131 141 181 209 240 302 342 352 10
168 216 156 238 280 198 189 169 188 186 195 224 229 215 190 190 195 198 201 204 204 204 207 212 210 211 214 217 221 225 222 226 227 231 235 232 229 227 247 257 211 206 207 224 236 257 291 310 323
201 225 189 248 315 236 184 186 192 207 195 204 214 205 201 199 203 205 208 210 212 211 211 214 219 219 220 222 221 228 230 232 235 238 242 243 243 232 234 248 262 256 248 246 244 253 271 282 281
195 194 155 159 170 186 168 153 183 216 209 223 206 207 207 209 209 209 211 215 215 219 216 218 223 224 226 228 231 232 235 237 238 240 243 246 246 240 237 240 246 262 259 257 256 258 260 270 276
155 132 342 133 199 157 141 88 223 220 202 211 199 204 206 213 215 219 219 219 219 221 220 222 225 230 231 233 234 236 238 241 242 245 247 250 251 245 240 243 247 252 260 263 266 271 270 270 272
104 63 137 303 154 116 140 248 253 207 199 204 204 205 209 214 222 226 227 230 229 228 229 230 233 236 238 237 238 237 238 242 244 246 249 251 257 259 252 250 257 263 266 268 269 271 274 274 273
12 152 161 288 128 124 143 243 248 213 209 216 211 214 217 220 226 229 230 231 233 238 237 237 239 243 244 246 244 238 243 247 248 251 252 257 251 255 263 269 272 270 266 269 273 274 275 277 278
166 136 193 188 212 134 161 260 282 223 215 220 223 225 225 230 234 234 234 236 235 236 240 243 246 249 250 256 257 247 242 244 247 250 250 251 254 257 264 267 265 268 269 269 269 274 278 282 284
161 137 165 274 8 163 210 245 251 251 259 232 230 231 233 237 240 240 239 239 240 240 239 240 242 245 247 248 252 247 242 245 248 249 252 251 253 256 262 267 268 267 270 271 272 273 274 277 282
133 142 185 106 26 154 134 262 257 195 241 242 238 232 235 242 241 240 239 240 241 244 245 243 243 242 244 248 253 254 256 253 251 255 254 255 256 257 259 261 264 268 270 272 270 268 269 274 276
146 165 179 191 96 37 350 277 239 241 227 240 245 248 248 245 246 244 242 244 246 248 248 246 245 245 245 246 249 251 252 255 253 252 253 252 256 259 260 263 264 266 266 270 274 280 277 273 274
147 193 137 129 126 221 117 275 250 237 238 215 240 242 245 246 245 246 247 248 245 249 252 245 244 245 243 241 245 247 251 257 264 267 274 272 261 257 260 265 268 269 269 270 271 271 270 273 272
196 125 142 125 126 126 226 258 256 315 254 226 233 235 240 247 248 248 249 249 248 251 247 246 246 247 247 245 247 251 253 259 264 266 269 271 272 266 262 263 265 268 272 273 270 269 267 268 271
149 85 54 60 79 278 246 187 260 183 207 250 237 241 252 259 253 251 250 246 243 240 240 241 240 238 241 243 245 250 255 258 262 266 268 270 273 274 270 269 269 270 272 272 272 273 269 268 270
101 94 21 31 327 223 301 254 256 265 253 256 170 178 253 243 229 235 242 228 226 231 236 240 240 241 243 245 246 249 253 257 262 265 267 268 269 267 269 273 270 273 279 276 276 273 273 272 272
178 161 156 180 209 234 40 239 247 231 265 279 265 270 273 211 197 188 193 203 215 225 232 236 237 243 249 254 258 259 262 265 263 263 265 267 268 267 264 261 268 273 274 269 275 276 273 272 274
188 184 148 103 31 60 221 293 296 272 268 254 240 221 213 177 155 158 169 180 199 220 235 247 250 249 250 254 256 259 262 264 267 267 263 260 260 259 258 261 260 268 278 266 266 270 269 270 274
184 149 143 350 142 230 265 273 238 315 26 196 190 202 189 175 167 157 161 176 203 237 251 252 254 256 259 260 262 266 270 269 267 261 264 267 255 250 253 260 260 269 272 268 264 265 265 266 265
127 182 83 124 157 168 182 256 220 252 260 238 215 199 189 179 170 157 159 180 196 206 220 237 250 262 268 274 274 270 267 268 270 269 268 267 257 256 258 262 256 267 270 270 264 254 270 264 272
177 173 162 179 208 127 139 275 307 270 259 222 161 159 163 158 154 147 148 162 170 204 248 268 274 274 279 287 288 289 286 280 271 266 264 257 254 256 258 259 259 267 267 263 269 260 267 272 271